Simultaneous Nadir Overpasses (SNOs) Predictions

Prediction of SNOs between GOES-15 and TERRA Satellite Orbit:

Table of predicted SNOs for the next 14.0 days since TLE Epoch: 10/11/2014
Index Date Time (GOES-15) GOES-15 Lat,Lon TERRA Lat,Lon Distance(km) Time Diff (sec)
1 10/11/2014 19:22:10 -0.34,-135.38 -0.92,-132.77 297.55 80
2 10/12/2014 07:43:33 0.33,-135.34 -0.20,-137.96 297.38 80
3 10/14/2014 07:28:41 0.33,-135.33 0.40,-135.00 37.76 80
4 10/16/2014 07:16:29 0.32,-135.32 1.03,-132.04 372.66 80
5 10/16/2014 19:37:44 -0.32,-135.35 0.08,-137.19 209.71 80
6 10/18/2014 19:28:12 -0.32,-135.33 -0.57,-134.24 124.95 80
7 10/19/2014 07:49:35 0.31,-135.29 -0.59,-139.42 469.51 80
8 10/20/2014 19:15:59 -0.32,-135.31 -1.18,-131.27 459.21 80
9 10/21/2014 07:37:22 0.31,-135.27 0.03,-136.45 135.43 80
10 10/23/2014 07:22:29 0.31,-135.24 0.67,-133.49 198.21 80
11 10/23/2014 19:43:44 -0.30,-135.26 0.43,-138.65 385.12 80




NCC Satellite Simultaneous Nadir Overpasses (SNOs) Prediction Service
